• In Belarus
  • List of Countries
  • For 7 days
  • Water Temperature
  • Satellite Maps
  • Weather Map
  • Weather Widgets
  • user-avatar
    Login

    Hourly Weather Coimbra

    Today, 17 December, Monday

    Time Temperature Precipitation Wind Pressure Humidity
    00:00 +9°C° 0 mm 1 mps 764 mmHg 91%
    01:00 +8°C° 0 mm 1 mps 764 mmHg 91%
    02:00 +8°C° 0 mm 1 mps 764 mmHg 90%
    03:00 +7°C° 0 mm 2 mps 764 mmHg 90%
    04:00 +7°C° 0 mm 2 mps 764 mmHg 90%
    05:00 +7°C° 0 mm 2 mps 764 mmHg 89%
    06:00 +7°C° 0 mm 2 mps 764 mmHg 88%
    07:00 +8°C° 0 mm 2 mps 764 mmHg 87%
    08:00 +8°C° 0 mm 2 mps 764 mmHg 86%
    09:00 +10°C° 0 mm 2 mps 764 mmHg 79%
    10:00 +12°C° 0 mm 2 mps 764 mmHg 72%
    11:00 +14°C° 0 mm 2 mps 763 mmHg 66%
    12:00 +15°C° 0 mm 2 mps 763 mmHg 63%
    13:00 +15°C° 0 mm 2 mps 763 mmHg 61%
    14:00 +15°C° 0 mm 2 mps 762 mmHg 59%
    15:00 +13°C° 0 mm 2 mps 762 mmHg 65%
    16:00 +12°C° 0 mm 2 mps 762 mmHg 71%
    17:00 +9°C° 0 mm 2 mps 762 mmHg 78%
    18:00 +9°C° 0 mm 3 mps 762 mmHg 78%
    19:00 +9°C° 0 mm 3 mps 762 mmHg 78%
    20:00 +8°C° 0 mm 3 mps 762 mmHg 79%
    21:00 +8°C° 0 mm 3 mps 761 mmHg 79%
    22:00 +7°C° 0 mm 4 mps 761 mmHg 79%
    23:00 +7°C° 0 mm 4 mps 761 mmHg 80%

    Tomorrow, 18 December, Tuesday

    Time Temperature Precipitation Wind Pressure Humidity
    00:00 +7°C° 0 mm 4 mps 760 mmHg 79%
    01:00 +7°C° 0 mm 4 mps 760 mmHg 78%
    02:00 +7°C° 0 mm 5 mps 759 mmHg 77%
    03:00 +7°C° 0 mm 5 mps 758 mmHg 76%
    04:00 +7°C° 0 mm 5 mps 758 mmHg 75%
    05:00 +7°C° 0 mm 5 mps 757 mmHg 74%
    06:00 +7°C° 0 mm 5 mps 757 mmHg 74%
    07:00 +8°C° 0 mm 6 mps 757 mmHg 73%
    08:00 +8°C° 0 mm 6 mps 757 mmHg 73%
    09:00 +8°C° 0.6 mm 6 mps 757 mmHg 75%
    10:00 +9°C° 0.6 mm 6 mps 757 mmHg 78%
    11:00 +10°C° 0.6 mm 6 mps 757 mmHg 81%
    12:00 +11°C° 3.7 mm 4 mps 756 mmHg 86%
    13:00 +11°C° 3.7 mm 3 mps 756 mmHg 91%
    14:00 +12°C° 3.7 mm 2 mps 756 mmHg 96%
    15:00 +12°C° 0.8 mm 2 mps 756 mmHg 96%
    16:00 +11°C° 0.8 mm 1 mps 757 mmHg 96%
    17:00 +11°C° 0.8 mm 1 mps 757 mmHg 96%
    18:00 +10°C° 0 mm 1 mps 758 mmHg 96%
    19:00 +10°C° 0 mm 1 mps 758 mmHg 96%
    20:00 +9°C° 0 mm 1 mps 759 mmHg 95%
    21:00 +9°C° 0 mm 1 mps 759 mmHg 95%
    22:00 +9°C° 0 mm 1 mps 759 mmHg 95%
    23:00 +8°C° 0 mm 2 mps 759 mmHg 94%

    Day after tomorrow, 19 December, Wednesday

    Time Temperature Precipitation Wind Pressure Humidity
    00:00 +8°C° 0.1 mm 2 mps 759 mmHg 94%
    01:00 +8°C° 0.1 mm 2 mps 760 mmHg 93%
    02:00 +8°C° 0.1 mm 2 mps 760 mmHg 93%
    03:00 +8°C° 0.1 mm 2 mps 760 mmHg 94%
    04:00 +8°C° 0.1 mm 3 mps 760 mmHg 94%
    05:00 +8°C° 0.1 mm 3 mps 760 mmHg 95%
    06:00 +9°C° 0.1 mm 3 mps 760 mmHg 94%
    07:00 +9°C° 0.1 mm 3 mps 761 mmHg 94%
    08:00 +10°C° 0.1 mm 2 mps 761 mmHg 94%
    09:00 +11°C° 0.2 mm 3 mps 761 mmHg 89%
    10:00 +12°C° 0.2 mm 3 mps 761 mmHg 84%
    11:00 +13°C° 0.2 mm 4 mps 761 mmHg 79%
    12:00 +13°C° 0.1 mm 3 mps 761 mmHg 79%
    13:00 +13°C° 0.1 mm 3 mps 761 mmHg 79%
    14:00 +13°C° 0.1 mm 3 mps 761 mmHg 79%
    15:00 +13°C° 0.1 mm 2 mps 761 mmHg 84%
    16:00 +12°C° 0.1 mm 1 mps 762 mmHg 88%
    17:00 +11°C° 0.1 mm 1 mps 762 mmHg 92%
    18:00 +10°C° 0 mm 1 mps 762 mmHg 93%
    19:00 +10°C° 0 mm 1 mps 763 mmHg 93%
    20:00 +10°C° 0 mm 1 mps 763 mmHg 94%
    21:00 +10°C° 0 mm 1 mps 763 mmHg 94%
    22:00 +10°C° 0 mm 1 mps 763 mmHg 94%
    23:00 +10°C° 0 mm 1 mps 763 mmHg 95%

    20 December, Thursday

    Time Temperature Precipitation Wind Pressure Humidity
    00:00 +10°C° 0 mm 1 mps 763 mmHg 94%
    01:00 +9°C° 0 mm 1 mps 763 mmHg 94%
    02:00 +9°C° 0 mm 1 mps 763 mmHg 94%
    03:00 +9°C° 0 mm 1 mps 763 mmHg 94%
    04:00 +8°C° 0 mm 2 mps 763 mmHg 94%
    05:00 +8°C° 0 mm 2 mps 763 mmHg 94%
    06:00 +9°C° 0 mm 2 mps 763 mmHg 93%
    07:00 +9°C° 0 mm 2 mps 764 mmHg 92%
    08:00 +9°C° 0 mm 2 mps 764 mmHg 92%
    09:00 +12°C° 0 mm 2 mps 764 mmHg 88%
    10:00 +13°C° 0 mm 2 mps 764 mmHg 85%
    11:00 +14°C° 0 mm 2 mps 764 mmHg 81%
    12:00 +14°C° 0 mm 2 mps 764 mmHg 82%
    13:00 +15°C° 0 mm 2 mps 764 mmHg 83%
    14:00 +15°C° 0 mm 2 mps 763 mmHg 84%
    15:00 +14°C° 0 mm 2 mps 763 mmHg 87%
    16:00 +13°C° 0 mm 2 mps 763 mmHg 90%
    17:00 +12°C° 0 mm 2 mps 764 mmHg 94%
    18:00 +12°C° 0 mm 2 mps 764 mmHg 94%
    19:00 +12°C° 0 mm 2 mps 764 mmHg 94%
    20:00 +10°C° 0 mm 2 mps 765 mmHg 94%
    21:00 +10°C° 0 mm 2 mps 765 mmHg 94%
    22:00 +10°C° 0 mm 2 mps 765 mmHg 93%
    23:00 +12°C° 0 mm 2 mps 765 mmHg 93%

    21 December, Friday

    Time Temperature Precipitation Wind Pressure Humidity
    00:00 +10°C° 0 mm 2 mps 765 mmHg 93%
    01:00 +10°C° 0 mm 2 mps 765 mmHg 93%
    02:00 +10°C° 0 mm 2 mps 765 mmHg 93%
    03:00 +10°C° 0 mm 2 mps 765 mmHg 93%
    04:00 +10°C° 0 mm 2 mps 765 mmHg 92%
    05:00 +10°C° 0 mm 2 mps 765 mmHg 92%
    06:00 +10°C° 0 mm 2 mps 765 mmHg 92%
    07:00 +12°C° 0 mm 2 mps 765 mmHg 91%
    08:00 +12°C° 0 mm 2 mps 766 mmHg 91%
    09:00 +13°C° 0 mm 2 mps 766 mmHg 86%
    10:00 +15°C° 0 mm 2 mps 766 mmHg 81%
    11:00 +16°C° 0 mm 2 mps 766 mmHg 77%
    12:00 +17°C° 0 mm 2 mps 765 mmHg 76%
    13:00 +17°C° 0 mm 2 mps 765 mmHg 75%
    14:00 +17°C° 0 mm 2 mps 765 mmHg 75%
    15:00 +16°C° 0 mm 2 mps 765 mmHg 80%
    16:00 +15°C° 0 mm 1 mps 765 mmHg 86%
    17:00 +13°C° 0 mm 1 mps 765 mmHg 91%
    18:00 +13°C° 0 mm 1 mps 766 mmHg 92%
    19:00 +12°C° 0 mm 1 mps 766 mmHg 93%
    20:00 +12°C° 0 mm 1 mps 766 mmHg 93%
    21:00 +12°C° 0 mm 1 mps 766 mmHg 94%
    22:00 +12°C° 0 mm 1 mps 766 mmHg 94%
    23:00 +11°C° 0 mm 1 mps 766 mmHg 94%

    22 December, Saturday

    Time Temperature Precipitation Wind Pressure Humidity
    00:00 +11°C° 0 mm 1 mps 766 mmHg 94%
    01:00 +11°C° 0 mm 1 mps 765 mmHg 94%
    02:00 +11°C° 0 mm 1 mps 765 mmHg 94%
    03:00 +11°C° 0 mm 1 mps 765 mmHg 94%
    04:00 +11°C° 0 mm 1 mps 765 mmHg 94%
    05:00 +10°C° 0 mm 2 mps 765 mmHg 94%
    06:00 +10°C° 0 mm 2 mps 765 mmHg 93%
    07:00 +10°C° 0 mm 2 mps 765 mmHg 92%
    08:00 +12°C° 0 mm 2 mps 765 mmHg 91%
    09:00 +14°C° 0 mm 1 mps 765 mmHg 83%
    10:00 +16°C° 0 mm 1 mps 765 mmHg 76%
    11:00 +19°C° 0 mm 1 mps 765 mmHg 69%
    12:00 +19°C° 0 mm 1 mps 764 mmHg 67%
    13:00 +20°C° 0 mm 1 mps 764 mmHg 65%
    14:00 +20°C° 0 mm 1 mps 763 mmHg 64%
    15:00 +18°C° 0 mm 1 mps 763 mmHg 71%
    16:00 +15°C° 0 mm 1 mps 763 mmHg 79%
    17:00 +14°C° 0 mm 1 mps 763 mmHg 86%
    18:00 +13°C° 0 mm 1 mps 763 mmHg 87%
    19:00 +13°C° 0 mm 2 mps 763 mmHg 87%
    20:00 +12°C° 0 mm 2 mps 763 mmHg 88%
    21:00 +12°C° 0 mm 2 mps 763 mmHg 87%
    22:00 +12°C° 0 mm 2 mps 763 mmHg 87%
    23:00 +12°C° 0 mm 2 mps 763 mmHg 86%
    Show more